www.cux-wetter.de
Wetterdaten: Dienstag, 11.08.2009
Datum Zeit Temp. A. Feuchte A. Luftdruck Regen Wind Richtung Richtung Sonnenschein Solar Taupunkt Windchill Windben
11.08.2009 00:01 18,7 C 75 % 1012,5 hPa 0,0 l/m 0,0 km/h (0 Bft) NW 325 0 min 0 W/m 14,2 C 18,7 C 0,0 km/h (0 Bft)
11.08.2009 00:06 18,6 C 75 % 1012,5 hPa 0,0 l/m 0,0 km/h (0 Bft) NW 325 0 min 0 W/m 14,1 C 18,6 C 0,0 km/h (0 Bft)
11.08.2009 00:11 18,6 C 75 % 1012,5 hPa 0,0 l/m 0,0 km/h (0 Bft) NW 325 0 min 0 W/m 14,1 C 18,6 C 0,0 km/h (0 Bft)
11.08.2009 00:16 18,6 C 75 % 1012,5 hPa 0,0 l/m 0,0 km/h (0 Bft) NW 325 0 min 0 W/m 14,1 C 18,6 C 0,0 km/h (0 Bft)
11.08.2009 00:21 18,6 C 75 % 1012,5 hPa 0,0 l/m 0,0 km/h (0 Bft) NW 325 0 min 0 W/m 14,1 C 18,6 C 0,0 km/h (0 Bft)
11.08.2009 00:26 18,6 C 76 % 1012,5 hPa 0,0 l/m 0,0 km/h (0 Bft) NW 325 0 min 0 W/m 14,3 C 18,6 C 0,0 km/h (0 Bft)
11.08.2009 00:31 18,6 C 76 % 1012,5 hPa 0,0 l/m 0,0 km/h (0 Bft) NW 325 0 min 0 W/m 14,3 C 18,6 C 0,0 km/h (0 Bft)
11.08.2009 00:36 18,4 C 76 % 1012,5 hPa 0,0 l/m 0,0 km/h (0 Bft) NW 325 0 min 0 W/m 14,1 C 18,4 C 0,0 km/h (0 Bft)
11.08.2009 00:41 18,4 C 76 % 1012,5 hPa 0,0 l/m 0,0 km/h (0 Bft) NW 325 0 min 0 W/m 14,1 C 18,4 C 0,0 km/h (0 Bft)
11.08.2009 00:46 18,3 C 76 % 1012,5 hPa 0,0 l/m 0,0 km/h (0 Bft) NW 325 0 min 0 W/m 14,0 C 18,3 C 0,0 km/h (0 Bft)
11.08.2009 00:51 18,1 C 77 % 1012,5 hPa 0,0 l/m 0,0 km/h (0 Bft) NW 325 0 min 0 W/m 14,0 C 18,1 C 0,0 km/h (0 Bft)
11.08.2009 00:56 18,1 C 77 % 1012,5 hPa 0,0 l/m 0,0 km/h (0 Bft) NW 325 0 min 0 W/m 14,0 C 18,1 C 0,0 km/h (0 Bft)
11.08.2009 01:01 18,1 C 77 % 1012,5 hPa 0,0 l/m 0,0 km/h (0 Bft) NW 325 0 min 0 W/m 14,0 C 18,1 C 0,0 km/h (0 Bft)
11.08.2009 01:06 18,1 C 77 % 1012,5 hPa 0,0 l/m 0,0 km/h (0 Bft) NW 325 0 min 0 W/m 14,0 C 18,1 C 0,0 km/h (0 Bft)
11.08.2009 01:11 18,1 C 77 % 1012,5 hPa 0,0 l/m 0,0 km/h (0 Bft) NW 325 0 min 0 W/m 14,0 C 18,1 C 0,0 km/h (0 Bft)
11.08.2009 01:16 18,1 C 77 % 1012,5 hPa 0,0 l/m 0,0 km/h (0 Bft) NW 325 0 min 0 W/m 14,0 C 18,1 C 0,0 km/h (0 Bft)
11.08.2009 01:21 18,1 C 77 % 1012,5 hPa 0,0 l/m 0,0 km/h (0 Bft) NW 325 0 min 0 W/m 14,0 C 18,1 C 0,0 km/h (0 Bft)
11.08.2009 01:26 17,9 C 78 % 1012,5 hPa 0,0 l/m 9,1 km/h (2 Bft) W 260 0 min 0 W/m 14,0 C 16,7 C 9,1 km/h (2 Bft)
11.08.2009 01:31 17,6 C 78 % 1012,5 hPa 0,0 l/m 9,3 km/h (2 Bft) W-SW 255 0 min 0 W/m 13,7 C 16,3 C 9,3 km/h (2 Bft)
11.08.2009 01:36 17,4 C 79 % 1012,5 hPa 0,0 l/m 8,1 km/h (2 Bft) W-SW 250 0 min 0 W/m 13,7 C 16,6 C 8,1 km/h (2 Bft)
11.08.2009 01:41 17,4 C 79 % 1012,5 hPa 0,0 l/m 7,0 km/h (2 Bft) W-SW 250 0 min 0 W/m 13,7 C 17,1 C 7,0 km/h (2 Bft)
11.08.2009 01:46 17,4 C 80 % 1012,5 hPa 0,0 l/m 5,3 km/h (1 Bft) W-SW 240 0 min 0 W/m 13,9 C 17,4 C 5,3 km/h (1 Bft)
11.08.2009 01:51 17,5 C 80 % 1012,5 hPa 0,0 l/m 4,5 km/h (1 Bft) W-SW 240 0 min 0 W/m 14,0 C 17,5 C 4,5 km/h (1 Bft)
11.08.2009 01:56 17,4 C 80 % 1012,5 hPa 0,0 l/m 3,1 km/h (1 Bft) W-SW 240 0 min 0 W/m 13,9 C 17,4 C 3,1 km/h (1 Bft)
11.08.2009 02:01 17,4 C 80 % 1012,5 hPa 0,0 l/m 4,5 km/h (1 Bft) W-SW 240 0 min 0 W/m 13,9 C 17,4 C 4,5 km/h (1 Bft)
11.08.2009 02:06 17,4 C 81 % 1012,5 hPa 0,0 l/m 3,1 km/h (1 Bft) W-SW 240 0 min 0 W/m 14,1 C 17,4 C 3,1 km/h (1 Bft)
11.08.2009 02:11 17,5 C 81 % 1012,5 hPa 0,0 l/m 2,2 km/h (1 Bft) W-SW 240 0 min 0 W/m 14,2 C 17,5 C 2,2 km/h (1 Bft)
11.08.2009 02:16 17,4 C 81 % 1012,5 hPa 0,0 l/m 3,0 km/h (1 Bft) W-SW 240 0 min 0 W/m 14,1 C 17,4 C 3,0 km/h (1 Bft)
11.08.2009 02:21 17,3 C 82 % 1012,5 hPa 0,0 l/m 5,6 km/h (2 Bft) W-SW 240 0 min 0 W/m 14,2 C 17,3 C 5,6 km/h (2 Bft)
11.08.2009 02:26 17,2 C 82 % 1012,5 hPa 0,0 l/m 6,0 km/h (2 Bft) W-SW 250 0 min 0 W/m 14,1 C 17,2 C 6,0 km/h (2 Bft)
11.08.2009 02:31 17,2 C 82 % 1012,5 hPa 0,0 l/m 8,6 km/h (2 Bft) W-SW 240 0 min 0 W/m 14,1 C 16,1 C 8,6 km/h (2 Bft)
11.08.2009 02:36 17,2 C 82 % 1012,5 hPa 0,0 l/m 3,6 km/h (1 Bft) W 260 0 min 0 W/m 14,1 C 17,2 C 3,6 km/h (1 Bft)
11.08.2009 02:41 17,3 C 82 % 1012,5 hPa 0,0 l/m 3,4 km/h (1 Bft) W 260 0 min 0 W/m 14,2 C 17,3 C 3,4 km/h (1 Bft)
11.08.2009 02:46 17,5 C 82 % 1012,5 hPa 0,3 l/m 3,5 km/h (1 Bft) W 260 0 min 0 W/m 14,4 C 17,5 C 3,5 km/h (1 Bft)
11.08.2009 02:51 17,6 C 82 % 1012,5 hPa 0,0 l/m 0,0 km/h (0 Bft) W 260 0 min 0 W/m 14,5 C 17,6 C 0,0 km/h (0 Bft)
11.08.2009 02:56 17,7 C 82 % 1012,5 hPa 0,0 l/m 0,2 km/h (0 Bft) W 260 0 min 0 W/m 14,6 C 17,7 C 0,2 km/h (0 Bft)
11.08.2009 03:01 17,7 C 82 % 1012,5 hPa 0,0 l/m 3,0 km/h (1 Bft) W 260 0 min 0 W/m 14,6 C 17,7 C 3,0 km/h (1 Bft)
11.08.2009 03:06 17,6 C 82 % 1012,5 hPa 0,0 l/m 4,3 km/h (1 Bft) S-SW 210 0 min 0 W/m 14,5 C 17,6 C 4,3 km/h (1 Bft)
11.08.2009 03:11 17,6 C 82 % 1012,5 hPa 0,0 l/m 5,8 km/h (2 Bft) S-SO 165 0 min 0 W/m 14,5 C 17,6 C 5,8 km/h (2 Bft)
11.08.2009 03:16 17,6 C 82 % 1012,5 hPa 0,0 l/m 6,5 km/h (2 Bft) S-SO 165 0 min 0 W/m 14,5 C 17,6 C 6,5 km/h (2 Bft)
11.08.2009 03:21 17,6 C 81 % 1012,5 hPa 0,0 l/m 3,7 km/h (1 Bft) S-SO 165 0 min 0 W/m 14,3 C 17,6 C 3,7 km/h (1 Bft)
11.08.2009 03:26 17,5 C 81 % 1012,5 hPa 0,0 l/m 0,6 km/h (0 Bft) S-SO 165 0 min 0 W/m 14,2 C 17,5 C 0,6 km/h (0 Bft)
11.08.2009 03:31 17,4 C 82 % 1012,5 hPa 0,0 l/m 4,4 km/h (1 Bft) S-SO 165 0 min 0 W/m 14,3 C 17,4 C 4,4 km/h (1 Bft)
11.08.2009 03:36 17,4 C 82 % 1012,5 hPa 0,0 l/m 7,0 km/h (2 Bft) S 185 0 min 0 W/m 14,3 C 17,1 C 7,0 km/h (2 Bft)
11.08.2009 03:41 17,4 C 82 % 1011,5 hPa 0,0 l/m 5,7 km/h (2 Bft) S 185 0 min 0 W/m 14,3 C 17,4 C 5,7 km/h (2 Bft)
11.08.2009 03:46 17,4 C 82 % 1011,5 hPa 0,0 l/m 7,2 km/h (2 Bft) S-SW 200 0 min 0 W/m 14,3 C 17,0 C 7,2 km/h (2 Bft)
11.08.2009 03:51 17,4 C 82 % 1011,5 hPa 0,0 l/m 7,0 km/h (2 Bft) SW 215 0 min 0 W/m 14,3 C 17,1 C 7,0 km/h (2 Bft)
11.08.2009 03:56 17,5 C 82 % 1011,5 hPa 0,0 l/m 6,3 km/h (2 Bft) S-SW 200 0 min 0 W/m 14,4 C 17,5 C 6,3 km/h (2 Bft)
11.08.2009 04:01 17,5 C 82 % 1011,5 hPa 0,0 l/m 0,3 km/h (0 Bft) S 180 0 min 0 W/m 14,4 C 17,5 C 0,3 km/h (0 Bft)
11.08.2009 04:06 17,5 C 82 % 1011,5 hPa 0,0 l/m 0,3 km/h (0 Bft) S 180 0 min 0 W/m 14,4 C 17,5 C 0,3 km/h (0 Bft)
11.08.2009 04:11 17,5 C 82 % 1011,5 hPa 0,0 l/m 4,2 km/h (1 Bft) S 180 0 min 0 W/m 14,4 C 17,5 C 4,2 km/h (1 Bft)
11.08.2009 04:16 17,5 C 82 % 1011,5 hPa 0,0 l/m 6,8 km/h (2 Bft) S 180 0 min 0 W/m 14,4 C 17,3 C 6,8 km/h (2 Bft)
11.08.2009 04:21 17,6 C 82 % 1011,5 hPa 0,0 l/m 4,8 km/h (1 Bft) S 180 0 min 0 W/m 14,5 C 17,6 C 4,8 km/h (1 Bft)
11.08.2009 04:26 17,6 C 82 % 1011,5 hPa 0,0 l/m 5,0 km/h (1 Bft) S 180 0 min 0 W/m 14,5 C 17,6 C 5,0 km/h (1 Bft)
11.08.2009 04:31 17,6 C 82 % 1011,5 hPa 0,0 l/m 5,6 km/h (2 Bft) S 180 0 min 0 W/m 14,5 C 17,6 C 5,6 km/h (2 Bft)
11.08.2009 04:36 17,6 C 82 % 1011,5 hPa 0,0 l/m 8,0 km/h (2 Bft) SW 215 0 min 0 W/m 14,5 C 16,8 C 8,0 km/h (2 Bft)
11.08.2009 04:41 17,6 C 82 % 1011,5 hPa 0,0 l/m 6,5 km/h (2 Bft) S-SW 195 0 min 0 W/m 14,5 C 17,6 C 6,5 km/h (2 Bft)
11.08.2009 04:46 17,5 C 82 % 1011,5 hPa 0,0 l/m 8,3 km/h (2 Bft) S-SW 205 0 min 0 W/m 14,4 C 16,6 C 8,3 km/h (2 Bft)
11.08.2009 04:51 17,5 C 82 % 1011,5 hPa 0,0 l/m 8,4 km/h (2 Bft) S-SW 205 0 min 0 W/m 14,4 C 16,5 C 8,4 km/h (2 Bft)
11.08.2009 04:56 17,5 C 82 % 1011,5 hPa 0,0 l/m 9,1 km/h (2 Bft) S-SW 210 0 min 0 W/m 14,4 C 16,2 C 9,1 km/h (2 Bft)
11.08.2009 05:01 17,3 C 83 % 1011,5 hPa 0,0 l/m 10,5 km/h (2 Bft) W-SW 240 0 min 0 W/m 14,4 C 15,5 C 10,5 km/h (2 Bft)
11.08.2009 05:06 17,1 C 83 % 1011,5 hPa 0,0 l/m 9,6 km/h (2 Bft) SW 235 0 min 0 W/m 14,2 C 15,6 C 9,6 km/h (2 Bft)
11.08.2009 05:11 17,0 C 84 % 1011,5 hPa 0,0 l/m 9,9 km/h (2 Bft) SW 220 0 min 0 W/m 14,3 C 15,4 C 9,9 km/h (2 Bft)
11.08.2009 05:16 16,9 C 84 % 1011,5 hPa 0,0 l/m 9,7 km/h (2 Bft) W-SW 240 0 min 0 W/m 14,2 C 15,3 C 9,7 km/h (2 Bft)
11.08.2009 05:21 16,8 C 84 % 1011,5 hPa 0,0 l/m 14,9 km/h (3 Bft) SW 230 0 min 0 W/m 14,1 C 13,4 C 14,9 km/h (3 Bft)
11.08.2009 05:26 16,7 C 85 % 1011,5 hPa 0,0 l/m 14,5 km/h (3 Bft) SW 235 0 min 0 W/m 14,2 C 13,4 C 14,5 km/h (3 Bft)
11.08.2009 05:31 16,7 C 85 % 1011,5 hPa 0,3 l/m 14,9 km/h (3 Bft) W-SW 245 0 min 0 W/m 14,2 C 13,3 C 14,9 km/h (3 Bft)
11.08.2009 05:36 16,5 C 86 % 1011,5 hPa 0,0 l/m 13,1 km/h (3 Bft) W-SW 245 0 min 0 W/m 14,1 C 13,6 C 13,1 km/h (3 Bft)
11.08.2009 05:41 16,4 C 86 % 1011,5 hPa 0,3 l/m 10,0 km/h (2 Bft) W-SW 240 0 min 0 W/m 14,1 C 14,7 C 10,0 km/h (2 Bft)
11.08.2009 05:46 16,3 C 86 % 1011,5 hPa 0,3 l/m 14,5 km/h (3 Bft) W-SW 240 0 min 0 W/m 14,0 C 12,9 C 14,5 km/h (3 Bft)
11.08.2009 05:51 16,4 C 87 % 1011,5 hPa 0,0 l/m 14,1 km/h (3 Bft) W-SW 240 0 min 0 W/m 14,2 C 13,2 C 14,1 km/h (3 Bft)
11.08.2009 05:56 16,3 C 87 % 1011,5 hPa 0,3 l/m 10,5 km/h (2 Bft) SW 235 0 min 0 W/m 14,1 C 14,3 C 10,5 km/h (2 Bft)
11.08.2009 06:01 16,3 C 87 % 1011,5 hPa 0,3 l/m 12,3 km/h (2 Bft) SW 235 0 min 0 W/m 14,1 C 13,7 C 12,3 km/h (2 Bft)
11.08.2009 06:06 16,3 C 88 % 1011,5 hPa 0,0 l/m 8,3 km/h (2 Bft) SW 220 0 min 0 W/m 14,3 C 15,3 C 8,3 km/h (2 Bft)
11.08.2009 06:11 16,4 C 88 % 1011,5 hPa 0,3 l/m 9,6 km/h (2 Bft) SW 225 0 min 0 W/m 14,4 C 14,8 C 9,6 km/h (2 Bft)
11.08.2009 06:16 16,3 C 88 % 1011,5 hPa 0,3 l/m 12,0 km/h (2 Bft) SW 230 0 min 0 W/m 14,3 C 13,8 C 12,0 km/h (2 Bft)
11.08.2009 06:21 16,2 C 88 % 1011,5 hPa 0,0 l/m 12,7 km/h (3 Bft) W-SW 250 0 min 0 W/m 14,2 C 13,4 C 12,7 km/h (3 Bft)
11.08.2009 06:26 16,3 C 88 % 1011,5 hPa 0,0 l/m 9,2 km/h (2 Bft) SW 235 0 min 0 W/m 14,3 C 14,9 C 9,2 km/h (2 Bft)
11.08.2009 06:31 16,3 C 88 % 1011,5 hPa 0,0 l/m 11,3 km/h (2 Bft) S-SW 210 0 min 0 W/m 14,3 C 14,0 C 11,3 km/h (2 Bft)
11.08.2009 06:36 16,2 C 88 % 1011,5 hPa 0,0 l/m 13,6 km/h (3 Bft) W-SW 245 0 min 0 W/m 14,2 C 13,1 C 13,6 km/h (3 Bft)
11.08.2009 06:41 16,2 C 88 % 1011,5 hPa 0,0 l/m 12,4 km/h (2 Bft) SW 220 0 min 0 W/m 14,2 C 13,5 C 12,4 km/h (2 Bft)
11.08.2009 06:46 16,3 C 88 % 1011,5 hPa 0,0 l/m 15,5 km/h (3 Bft) S-SW 205 0 min 0 W/m 14,3 C 12,6 C 15,5 km/h (3 Bft)
11.08.2009 06:51 16,3 C 88 % 1011,5 hPa 0,0 l/m 15,8 km/h (3 Bft) SW 215 0 min 0 W/m 14,3 C 12,5 C 15,8 km/h (3 Bft)
11.08.2009 06:56 16,3 C 89 % 1011,5 hPa 0,0 l/m 12,7 km/h (3 Bft) SW 215 0 min 0 W/m 14,5 C 13,5 C 12,7 km/h (3 Bft)
11.08.2009 07:01 16,4 C 89 % 1011,5 hPa 0,0 l/m 8,0 km/h (2 Bft) SW 225 0 min 0 W/m 14,6 C 15,6 C 8,0 km/h (2 Bft)
11.08.2009 07:06 16,4 C 89 % 1011,5 hPa 0,3 l/m 16,5 km/h (3 Bft) W-SW 240 0 min 0 W/m 14,6 C 12,5 C 16,5 km/h (3 Bft)
11.08.2009 07:11 16,4 C 90 % 1011,5 hPa 0,3 l/m 12,7 km/h (3 Bft) W-SW 240 0 min 0 W/m 14,8 C 13,6 C 12,7 km/h (3 Bft)
11.08.2009 07:16 16,3 C 90 % 1011,5 hPa 0,0 l/m 12,2 km/h (2 Bft) W-SW 245 0 min 0 W/m 14,7 C 13,7 C 12,2 km/h (2 Bft)
11.08.2009 07:21 16,3 C 90 % 1011,5 hPa 0,0 l/m 16,0 km/h (3 Bft) W-SW 245 0 min 0 W/m 14,7 C 12,5 C 16,0 km/h (3 Bft)
11.08.2009 07:26 16,3 C 90 % 1011,5 hPa 0,0 l/m 11,1 km/h (2 Bft) W-SW 245 0 min 0 W/m 14,7 C 14,1 C 11,1 km/h (2 Bft)
11.08.2009 07:31 16,4 C 90 % 1011,5 hPa 0,0 l/m 13,2 km/h (3 Bft) W-SW 240 0 min 0 W/m 14,8 C 13,5 C 13,2 km/h (3 Bft)
11.08.2009 07:36 16,4 C 90 % 1011,5 hPa 0,0 l/m 11,6 km/h (2 Bft) SW 235 0 min 0 W/m 14,8 C 14,0 C 11,6 km/h (2 Bft)
11.08.2009 07:41 16,4 C 90 % 1011,5 hPa 0,0 l/m 12,6 km/h (3 Bft) W-SW 240 0 min 0 W/m 14,8 C 13,7 C 12,6 km/h (3 Bft)
11.08.2009 07:46 16,4 C 90 % 1011,5 hPa 0,0 l/m 17,6 km/h (3 Bft) W-SW 245 0 min 0 W/m 14,8 C 12,2 C 17,6 km/h (3 Bft)
11.08.2009 07:51 16,4 C 91 % 1011,5 hPa 0,0 l/m 12,6 km/h (3 Bft) W-SW 245 0 min 0 W/m 14,9 C 13,7 C 12,6 km/h (3 Bft)
11.08.2009 07:56 16,4 C 91 % 1011,5 hPa 0,0 l/m 14,8 km/h (3 Bft) W-SW 240 0 min 0 W/m 14,9 C 12,9 C 14,8 km/h (3 Bft)
11.08.2009 08:01 16,4 C 91 % 1011,5 hPa 0,0 l/m 11,4 km/h (2 Bft) W-SW 250 0 min 0 W/m 14,9 C 14,1 C 11,4 km/h (2 Bft)
11.08.2009 08:06 16,4 C 91 % 1011,5 hPa 0,3 l/m 15,6 km/h (3 Bft) W-SW 250 0 min 0 W/m 14,9 C 12,7 C 15,6 km/h (3 Bft)
11.08.2009 08:11 16,4 C 92 % 1011,5 hPa 0,0 l/m 20,8 km/h (4 Bft) W-SW 255 0 min 0 W/m 15,1 C 11,4 C 20,8 km/h (4 Bft)
11.08.2009 08:16 16,4 C 92 % 1011,5 hPa 0,0 l/m 23,3 km/h (4 Bft) W-SW 255 0 min 0 W/m 15,1 C 10,8 C 23,3 km/h (4 Bft)
11.08.2009 08:21 16,6 C 92 % 1011,5 hPa 0,0 l/m 18,5 km/h (3 Bft) W-SW 250 0 min 0 W/m 15,3 C 12,2 C 18,5 km/h (3 Bft)
11.08.2009 08:26 16,7 C 92 % 1011,5 hPa 0,0 l/m 20,7 km/h (4 Bft) W-SW 255 0 min 0 W/m 15,4 C 11,8 C 20,7 km/h (4 Bft)
11.08.2009 08:31 16,8 C 92 % 1011,5 hPa 0,0 l/m 18,1 km/h (3 Bft) W-SW 255 0 min 0 W/m 15,5 C 12,5 C 18,1 km/h (3 Bft)
11.08.2009 08:36 17,0 C 92 % 1011,5 hPa 0,0 l/m 16,8 km/h (3 Bft) W 260 0 min 0 W/m 15,7 C 13,1 C 16,8 km/h (3 Bft)
11.08.2009 08:41 17,2 C 92 % 1011,5 hPa 0,0 l/m 24,2 km/h (4 Bft) W 260 0 min 0 W/m 15,9 C 11,7 C 24,2 km/h (4 Bft)
11.08.2009 08:46 17,3 C 91 % 1011,5 hPa 0,0 l/m 20,4 km/h (4 Bft) W-SW 255 0 min 0 W/m 15,8 C 12,6 C 20,4 km/h (4 Bft)
11.08.2009 08:51 17,4 C 91 % 1011,5 hPa 0,0 l/m 21,0 km/h (4 Bft) W 260 0 min 0 W/m 15,9 C 12,6 C 21,0 km/h (4 Bft)
11.08.2009 08:56 17,5 C 90 % 1011,5 hPa 0,0 l/m 25,2 km/h (4 Bft) W 260 0 min 0 W/m 15,8 C 12,0 C 25,2 km/h (4 Bft)
11.08.2009 09:01 17,5 C 90 % 1011,5 hPa 0,0 l/m 24,6 km/h (4 Bft) W 270 0 min 0 W/m 15,8 C 12,1 C 24,6 km/h (4 Bft)
11.08.2009 09:06 17,6 C 90 % 1011,5 hPa 0,0 l/m 19,5 km/h (3 Bft) W 260 0 min 0 W/m 15,9 C 13,2 C 19,5 km/h (3 Bft)
11.08.2009 09:11 17,6 C 90 % 1011,5 hPa 0,0 l/m 20,3 km/h (4 Bft) W 265 0 min 0 W/m 15,9 C 13,0 C 20,3 km/h (4 Bft)
11.08.2009 09:16 17,6 C 90 % 1011,5 hPa 0,0 l/m 19,1 km/h (3 Bft) W-SW 255 0 min 0 W/m 15,9 C 13,3 C 19,1 km/h (3 Bft)
11.08.2009 09:21 17,6 C 90 % 1011,5 hPa 0,0 l/m 21,8 km/h (4 Bft) W-SW 255 0 min 0 W/m 15,9 C 12,7 C 21,8 km/h (4 Bft)
11.08.2009 09:26 17,6 C 90 % 1011,5 hPa 0,0 l/m 26,1 km/h (4 Bft) W 260 0 min 0 W/m 15,9 C 11,9 C 26,1 km/h (4 Bft)
11.08.2009 09:31 17,6 C 91 % 1011,5 hPa 0,0 l/m 19,5 km/h (3 Bft) W 275 0 min 0 W/m 16,1 C 13,2 C 19,5 km/h (3 Bft)
11.08.2009 09:36 17,6 C 91 % 1011,5 hPa 0,0 l/m 15,8 km/h (3 Bft) W-NW 285 0 min 0 W/m 16,1 C 14,1 C 15,8 km/h (3 Bft)
11.08.2009 09:41 17,7 C 91 % 1011,5 hPa 0,0 l/m 16,3 km/h (3 Bft) W 270 0 min 0 W/m 16,2 C 14,1 C 16,3 km/h (3 Bft)
11.08.2009 09:46 17,7 C 91 % 1011,5 hPa 0,0 l/m 19,1 km/h (3 Bft) W 275 0 min 0 W/m 16,2 C 13,4 C 19,1 km/h (3 Bft)
11.08.2009 09:51 17,7 C 91 % 1011,5 hPa 0,0 l/m 18,5 km/h (3 Bft) W 270 0 min 0 W/m 16,2 C 13,6 C 18,5 km/h (3 Bft)
11.08.2009 09:56 17,7 C 91 % 1011,5 hPa 0,0 l/m 17,5 km/h (3 Bft) W 260 0 min 0 W/m 16,2 C 13,8 C 17,5 km/h (3 Bft)
11.08.2009 10:01 17,6 C 92 % 1011,5 hPa 0,0 l/m 17,3 km/h (3 Bft) W 260 0 min 0 W/m 16,3 C 13,7 C 17,3 km/h (3 Bft)
11.08.2009 10:06 17,6 C 92 % 1011,5 hPa 0,0 l/m 13,3 km/h (3 Bft) W 260 0 min 0 W/m 16,3 C 14,8 C 13,3 km/h (3 Bft)
11.08.2009 10:11 17,6 C 92 % 1011,5 hPa 0,0 l/m 17,6 km/h (3 Bft) W 260 0 min 0 W/m 16,3 C 13,7 C 17,6 km/h (3 Bft)
11.08.2009 10:16 17,7 C 92 % 1011,5 hPa 0,0 l/m 14,3 km/h (3 Bft) W 270 0 min 0 W/m 16,4 C 14,7 C 14,3 km/h (3 Bft)
11.08.2009 10:21 17,8 C 92 % 1011,5 hPa 0,0 l/m 13,7 km/h (3 Bft) W-SW 255 0 min 0 W/m 16,5 C 15,0 C 13,7 km/h (3 Bft)
11.08.2009 10:26 17,8 C 92 % 1011,5 hPa 0,3 l/m 16,3 km/h (3 Bft) W-NW 295 0 min 0 W/m 16,5 C 14,2 C 16,3 km/h (3 Bft)
11.08.2009 10:31 17,8 C 92 % 1012,5 hPa 0,0 l/m 12,1 km/h (2 Bft) NW 305 0 min 0 W/m 16,5 C 15,5 C 12,1 km/h (2 Bft)
11.08.2009 10:36 17,8 C 91 % 1012,5 hPa 0,0 l/m 14,8 km/h (3 Bft) NW 315 0 min 0 W/m 16,3 C 14,6 C 14,8 km/h (3 Bft)
11.08.2009 10:41 17,8 C 91 % 1012,5 hPa 0,0 l/m 14,4 km/h (3 Bft) NW 310 0 min 0 W/m 16,3 C 14,8 C 14,4 km/h (3 Bft)
11.08.2009 10:46 18,2 C 91 % 1012,5 hPa 0,0 l/m 12,1 km/h (2 Bft) NW 305 0 min 0 W/m 16,7 C 15,9 C 12,1 km/h (2 Bft)
11.08.2009 10:51 18,8 C 91 % 1012,5 hPa 0,0 l/m 14,0 km/h (3 Bft) N-NW 330 0 min 0 W/m 17,3 C 16,1 C 14,0 km/h (3 Bft)
11.08.2009 10:56 18,9 C 91 % 1012,5 hPa 0,0 l/m 16,6 km/h (3 Bft) N-NW 330 0 min 0 W/m 17,4 C 15,5 C 16,6 km/h (3 Bft)
11.08.2009 11:01 19,0 C 89 % 1012,5 hPa 0,0 l/m 15,7 km/h (3 Bft) N-NW 335 0 min 0 W/m 17,1 C 15,9 C 15,7 km/h (3 Bft)
11.08.2009 11:06 19,2 C 89 % 1012,5 hPa 0,0 l/m 17,7 km/h (3 Bft) N-NW 340 0 min 0 W/m 17,3 C 15,6 C 17,7 km/h (3 Bft)
11.08.2009 11:11 19,3 C 88 % 1012,5 hPa 0,0 l/m 16,3 km/h (3 Bft) N 350 0 min 0 W/m 17,3 C 16,1 C 16,3 km/h (3 Bft)
11.08.2009 11:16 19,3 C 87 % 1012,5 hPa 0,0 l/m 15,8 km/h (3 Bft) N-NW 345 0 min 0 W/m 17,1 C 16,2 C 15,8 km/h (3 Bft)
11.08.2009 11:21 19,6 C 85 % 1012,5 hPa 0,0 l/m 17,3 km/h (3 Bft) NW 320 0 min 0 W/m 17,0 C 16,2 C 17,3 km/h (3 Bft)
11.08.2009 11:26 19,5 C 84 % 1012,5 hPa 0,0 l/m 14,4 km/h (3 Bft) NW 320 0 min 0 W/m 16,7 C 16,8 C 14,4 km/h (3 Bft)
11.08.2009 11:31 19,4 C 84 % 1012,5 hPa 0,0 l/m 20,0 km/h (4 Bft) N-NW 345 0 min 0 W/m 16,6 C 15,4 C 20,0 km/h (4 Bft)
11.08.2009 11:36 19,3 C 83 % 1012,5 hPa 0,0 l/m 19,6 km/h (3 Bft) N-NW 340 0 min 0 W/m 16,3 C 15,4 C 19,6 km/h (3 Bft)
11.08.2009 11:41 19,8 C 84 % 1012,5 hPa 0,0 l/m 18,8 km/h (3 Bft) N-NW 340 0 min 0 W/m 17,0 C 16,2 C 18,8 km/h (3 Bft)
11.08.2009 11:46 20,0 C 81 % 1012,5 hPa 0,0 l/m 18,0 km/h (3 Bft) N-NW 345 0 min 0 W/m 16,6 C 16,6 C 18,0 km/h (3 Bft)
11.08.2009 11:51 20,3 C 80 % 1012,5 hPa 0,0 l/m 11,0 km/h (2 Bft) N-NW 335 0 min 0 W/m 16,7 C 18,7 C 11,0 km/h (2 Bft)
11.08.2009 11:56 20,5 C 79 % 1012,5 hPa 0,0 l/m 13,5 km/h (3 Bft) NW 310 0 min 0 W/m 16,7 C 18,2 C 13,5 km/h (3 Bft)
11.08.2009 12:01 20,8 C 79 % 1012,5 hPa 0,0 l/m 19,8 km/h (3 Bft) NW 315 0 min 0 W/m 17,0 C 17,3 C 19,8 km/h (3 Bft)
11.08.2009 12:06 20,9 C 76 % 1012,5 hPa 0,0 l/m 18,3 km/h (3 Bft) N-NW 345 0 min 0 W/m 16,5 C 17,7 C 18,3 km/h (3 Bft)
11.08.2009 12:11 21,0 C 76 % 1012,5 hPa 0,0 l/m 15,3 km/h (3 Bft) N-NW 330 0 min 0 W/m 16,6 C 18,4 C 15,3 km/h (3 Bft)
11.08.2009 12:16 21,4 C 75 % 1012,5 hPa 0,0 l/m 15,3 km/h (3 Bft) N-NW 330 0 min 0 W/m 16,8 C 18,9 C 15,3 km/h (3 Bft)
11.08.2009 12:21 21,4 C 74 % 1012,5 hPa 0,0 l/m 13,8 km/h (3 Bft) N-NW 345 0 min 0 W/m 16,6 C 19,2 C 13,8 km/h (3 Bft)
11.08.2009 12:26 21,1 C 73 % 1012,5 hPa 0,0 l/m 13,3 km/h (3 Bft) N-NW 335 0 min 0 W/m 16,1 C 19,0 C 13,3 km/h (3 Bft)
11.08.2009 12:31 21,3 C 74 % 1012,5 hPa 0,0 l/m 16,8 km/h (3 Bft) NW 315 0 min 0 W/m 16,5 C 18,5 C 16,8 km/h (3 Bft)
11.08.2009 12:36 21,4 C 72 % 1012,5 hPa 0,0 l/m 19,1 km/h (3 Bft) N-NW 340 0 min 0 W/m 16,1 C 18,2 C 19,1 km/h (3 Bft)
11.08.2009 12:41 21,3 C 73 % 1012,5 hPa 0,0 l/m 17,9 km/h (3 Bft) NW 320 0 min 0 W/m 16,3 C 18,3 C 17,9 km/h (3 Bft)
11.08.2009 12:46 21,4 C 73 % 1012,5 hPa 0,0 l/m 12,2 km/h (2 Bft) N-NW 335 0 min 0 W/m 16,4 C 19,6 C 12,2 km/h (2 Bft)
11.08.2009 12:51 21,7 C 73 % 1012,5 hPa 0,0 l/m 13,1 km/h (3 Bft) NW 320 0 min 0 W/m 16,6 C 19,7 C 13,1 km/h (3 Bft)
11.08.2009 12:56 21,8 C 72 % 1012,5 hPa 0,0 l/m 18,5 km/h (3 Bft) NW 315 0 min 0 W/m 16,5 C 18,8 C 18,5 km/h (3 Bft)
11.08.2009 13:01 21,6 C 72 % 1012,5 hPa 0,0 l/m 25,1 km/h (4 Bft) NW 320 0 min 0 W/m 16,3 C 17,5 C 25,1 km/h (4 Bft)
11.08.2009 13:06 21,6 C 72 % 1012,5 hPa 0,0 l/m 17,1 km/h (3 Bft) NW 305 0 min 0 W/m 16,3 C 18,8 C 17,1 km/h (3 Bft)
11.08.2009 13:11 21,6 C 70 % 1012,5 hPa 0,0 l/m 17,1 km/h (3 Bft) NW 305 0 min 0 W/m 15,9 C 18,8 C 17,1 km/h (3 Bft)
11.08.2009 13:16 21,3 C 72 % 1012,5 hPa 0,0 l/m 15,1 km/h (3 Bft) NW 315 0 min 0 W/m 16,0 C 18,8 C 15,1 km/h (3 Bft)
11.08.2009 13:21 21,1 C 72 % 1013,5 hPa 0,0 l/m 18,3 km/h (3 Bft) NW 320 0 min 0 W/m 15,8 C 17,9 C 18,3 km/h (3 Bft)
11.08.2009 13:26 21,0 C 72 % 1012,5 hPa 0,0 l/m 18,6 km/h (3 Bft) N-NW 335 0 min 0 W/m 15,8 C 17,7 C 18,6 km/h (3 Bft)
11.08.2009 13:31 20,8 C 72 % 1012,5 hPa 0,0 l/m 16,6 km/h (3 Bft) NW 320 0 min 0 W/m 15,6 C 17,9 C 16,6 km/h (3 Bft)
11.08.2009 13:36 20,9 C 73 % 1013,5 hPa 0,0 l/m 17,3 km/h (3 Bft) NW 305 0 min 0 W/m 15,9 C 17,9 C 17,3 km/h (3 Bft)
11.08.2009 13:41 20,9 C 73 % 1013,5 hPa 0,0 l/m 14,0 km/h (3 Bft) N-NW 335 0 min 0 W/m 15,9 C 18,6 C 14,0 km/h (3 Bft)
11.08.2009 13:46 20,6 C 73 % 1013,5 hPa 0,0 l/m 23,0 km/h (4 Bft) N-NW 330 0 min 0 W/m 15,6 C 16,5 C 23,0 km/h (4 Bft)
11.08.2009 13:51 20,4 C 75 % 1013,5 hPa 0,0 l/m 16,0 km/h (3 Bft) NW 310 0 min 0 W/m 15,8 C 17,5 C 16,0 km/h (3 Bft)
11.08.2009 13:56 20,4 C 75 % 1013,5 hPa 0,0 l/m 14,3 km/h (3 Bft) NW 320 0 min 0 W/m 15,8 C 17,9 C 14,3 km/h (3 Bft)
11.08.2009 14:01 20,6 C 76 % 1013,5 hPa 0,0 l/m 17,2 km/h (3 Bft) NW 320 0 min 0 W/m 16,2 C 17,5 C 17,2 km/h (3 Bft)
11.08.2009 14:06 21,1 C 76 % 1013,5 hPa 0,0 l/m 21,8 km/h (4 Bft) NW 320 0 min 0 W/m 16,7 C 17,3 C 21,8 km/h (4 Bft)
11.08.2009 14:11 21,4 C 74 % 1013,5 hPa 0,0 l/m 16,0 km/h (3 Bft) NW 320 0 min 0 W/m 16,6 C 18,7 C 16,0 km/h (3 Bft)
11.08.2009 14:16 21,6 C 72 % 1013,5 hPa 0,0 l/m 15,5 km/h (3 Bft) NW 320 0 min 0 W/m 16,3 C 19,1 C 15,5 km/h (3 Bft)
11.08.2009 14:21 21,4 C 73 % 1013,5 hPa 0,0 l/m 16,8 km/h (3 Bft) NW 320 0 min 0 W/m 16,4 C 18,6 C 16,8 km/h (3 Bft)
11.08.2009 14:26 21,3 C 73 % 1013,5 hPa 0,0 l/m 21,5 km/h (4 Bft) NW 325 0 min 0 W/m 16,3 C 17,6 C 21,5 km/h (4 Bft)
11.08.2009 14:31 21,2 C 73 % 1013,5 hPa 0,0 l/m 21,5 km/h (4 Bft) NW 325 0 min 0 W/m 16,2 C 17,5 C 21,5 km/h (4 Bft)
11.08.2009 14:36 21,0 C 74 % 1013,5 hPa 0,0 l/m 17,5 km/h (3 Bft) NW 325 0 min 0 W/m 16,2 C 17,9 C 17,5 km/h (3 Bft)
11.08.2009 14:41 21,1 C 74 % 1013,5 hPa 0,0 l/m 17,3 km/h (3 Bft) NW 315 0 min 0 W/m 16,3 C 18,1 C 17,3 km/h (3 Bft)
11.08.2009 14:46 21,1 C 74 % 1013,5 hPa 0,0 l/m 20,4 km/h (4 Bft) NW 310 0 min 0 W/m 16,3 C 17,6 C 20,4 km/h (4 Bft)
11.08.2009 14:51 21,3 C 74 % 1013,5 hPa 0,0 l/m 19,7 km/h (3 Bft) NW 310 0 min 0 W/m 16,5 C 17,9 C 19,7 km/h (3 Bft)
11.08.2009 14:56 21,3 C 73 % 1013,5 hPa 0,0 l/m 21,7 km/h (4 Bft) N-NW 330 0 min 0 W/m 16,3 C 17,6 C 21,7 km/h (4 Bft)
11.08.2009 15:01 21,2 C 73 % 1013,5 hPa 0,0 l/m 19,0 km/h (3 Bft) NW 325 0 min 0 W/m 16,2 C 17,9 C 19,0 km/h (3 Bft)
11.08.2009 15:06 21,2 C 73 % 1013,5 hPa 0,0 l/m 19,4 km/h (3 Bft) N-NW 340 0 min 0 W/m 16,2 C 17,9 C 19,4 km/h (3 Bft)
11.08.2009 15:11 21,2 C 73 % 1013,5 hPa 0,0 l/m 22,4 km/h (4 Bft) NW 305 0 min 0 W/m 16,2 C 17,4 C 22,4 km/h (4 Bft)
11.08.2009 15:16 21,4 C 72 % 1013,5 hPa 0,0 l/m 19,1 km/h (3 Bft) NW 315 0 min 0 W/m 16,1 C 18,2 C 19,1 km/h (3 Bft)
11.08.2009 15:21 21,3 C 72 % 1013,5 hPa 0,0 l/m 21,0 km/h (4 Bft) NW 315 0 min 0 W/m 16,0 C 17,7 C 21,0 km/h (4 Bft)
11.08.2009 15:26 21,2 C 71 % 1013,5 hPa 0,0 l/m 14,5 km/h (3 Bft) N-NW 345 0 min 0 W/m 15,7 C 18,8 C 14,5 km/h (3 Bft)
11.08.2009 15:31 21,3 C 73 % 1013,5 hPa 0,0 l/m 17,8 km/h (3 Bft) N-NW 330 0 min 0 W/m 16,3 C 18,3 C 17,8 km/h (3 Bft)
11.08.2009 15:36 21,3 C 72 % 1013,5 hPa 0,0 l/m 22,6 km/h (4 Bft) N-NW 330 0 min 0 W/m 16,0 C 17,5 C 22,6 km/h (4 Bft)
11.08.2009 15:41 21,1 C 72 % 1013,5 hPa 0,0 l/m 23,5 km/h (4 Bft) N-NW 335 0 min 0 W/m 15,8 C 17,1 C 23,5 km/h (4 Bft)
11.08.2009 15:46 20,8 C 72 % 1013,5 hPa 0,0 l/m 19,1 km/h (3 Bft) NW 320 0 min 0 W/m 15,6 C 17,4 C 19,1 km/h (3 Bft)
11.08.2009 15:51 20,9 C 73 % 1013,5 hPa 0,0 l/m 22,3 km/h (4 Bft) NW 325 0 min 0 W/m 15,9 C 17,0 C 22,3 km/h (4 Bft)
11.08.2009 15:56 21,1 C 73 % 1013,5 hPa 0,0 l/m 17,2 km/h (3 Bft) N-NW 340 0 min 0 W/m 16,1 C 18,1 C 17,2 km/h (3 Bft)
11.08.2009 16:01 20,9 C 73 % 1013,5 hPa 0,0 l/m 20,5 km/h (4 Bft) N-NW 330 0 min 0 W/m 15,9 C 17,3 C 20,5 km/h (4 Bft)
11.08.2009 16:06 20,8 C 73 % 1013,5 hPa 0,0 l/m 18,3 km/h (3 Bft) NW 325 0 min 0 W/m 15,8 C 17,5 C 18,3 km/h (3 Bft)
11.08.2009 16:11 20,6 C 73 % 1013,5 hPa 0,0 l/m 17,8 km/h (3 Bft) N-NW 345 0 min 0 W/m 15,6 C 17,4 C 17,8 km/h (3 Bft)
11.08.2009 16:16 20,5 C 73 % 1013,5 hPa 0,0 l/m 20,4 km/h (4 Bft) N-NW 340 0 min 0 W/m 15,5 C 16,8 C 20,4 km/h (4 Bft)
11.08.2009 16:21 20,4 C 72 % 1014,5 hPa 0,0 l/m 24,1 km/h (4 Bft) N-NW 340 0 min 0 W/m 15,2 C 16,1 C 24,1 km/h (4 Bft)
11.08.2009 16:26 20,5 C 73 % 1014,5 hPa 0,0 l/m 20,5 km/h (4 Bft) N 360 0 min 0 W/m 15,5 C 16,8 C 20,5 km/h (4 Bft)
11.08.2009 16:31 20,4 C 72 % 1014,5 hPa 0,0 l/m 19,0 km/h (3 Bft) N-NW 340 0 min 0 W/m 15,2 C 16,9 C 19,0 km/h (3 Bft)
11.08.2009 16:36 20,6 C 72 % 1014,5 hPa 0,0 l/m 22,5 km/h (4 Bft) N-NW 340 0 min 0 W/m 15,4 C 16,6 C 22,5 km/h (4 Bft)
11.08.2009 16:41 20,6 C 72 % 1014,5 hPa 0,0 l/m 26,6 km/h (4 Bft) N-NW 340 0 min 0 W/m 15,4 C 16,0 C 26,6 km/h (4 Bft)
11.08.2009 16:46 20,6 C 72 % 1014,5 hPa 0,0 l/m 18,4 km/h (3 Bft) NW 315 0 min 0 W/m 15,4 C 17,3 C 18,4 km/h (3 Bft)
11.08.2009 16:51 20,4 C 69 % 1014,5 hPa 0,0 l/m 24,8 km/h (4 Bft) N-NW 340 0 min 0 W/m 14,5 C 16,0 C 24,8 km/h (4 Bft)
11.08.2009 16:56 20,3 C 71 % 1014,5 hPa 0,0 l/m 21,8 km/h (4 Bft) NW 320 0 min 0 W/m 14,9 C 16,3 C 21,8 km/h (4 Bft)
11.08.2009 17:01 20,4 C 71 % 1014,5 hPa 0,0 l/m 21,1 km/h (4 Bft) NW 325 0 min 0 W/m 15,0 C 16,5 C 21,1 km/h (4 Bft)
11.08.2009 17:06 20,4 C 71 % 1014,5 hPa 0,0 l/m 19,5 km/h (3 Bft) N-NW 335 0 min 0 W/m 15,0 C 16,8 C 19,5 km/h (3 Bft)
11.08.2009 17:11 20,5 C 70 % 1014,5 hPa 0,0 l/m 19,0 km/h (3 Bft) N-NW 335 0 min 0 W/m 14,8 C 17,0 C 19,0 km/h (3 Bft)
11.08.2009 17:16 20,6 C 71 % 1014,5 hPa 0,0 l/m 18,6 km/h (3 Bft) N-NW 335 0 min 0 W/m 15,2 C 17,2 C 18,6 km/h (3 Bft)
11.08.2009 17:21 20,6 C 70 % 1014,5 hPa 0,0 l/m 17,0 km/h (3 Bft) N-NW 345 0 min 0 W/m 14,9 C 17,5 C 17,0 km/h (3 Bft)
11.08.2009 17:26 20,4 C 69 % 1014,5 hPa 0,0 l/m 18,4 km/h (3 Bft) N-NW 340 0 min 0 W/m 14,5 C 17,0 C 18,4 km/h (3 Bft)
11.08.2009 17:31 20,3 C 70 % 1014,5 hPa 0,0 l/m 23,7 km/h (4 Bft) N-NW 340 0 min 0 W/m 14,6 C 16,0 C 23,7 km/h (4 Bft)
11.08.2009 17:36 20,1 C 71 % 1014,5 hPa 0,0 l/m 18,3 km/h (3 Bft) N-NW 335 0 min 0 W/m 14,7 C 16,7 C 18,3 km/h (3 Bft)
11.08.2009 17:41 20,0 C 71 % 1014,5 hPa 0,0 l/m 16,9 km/h (3 Bft) NW 320 0 min 0 W/m 14,6 C 16,8 C 16,9 km/h (3 Bft)
11.08.2009 17:46 20,2 C 71 % 1014,5 hPa 0,0 l/m 16,8 km/h (3 Bft) N 355 0 min 0 W/m 14,8 C 17,1 C 16,8 km/h (3 Bft)
11.08.2009 17:51 20,0 C 71 % 1014,5 hPa 0,0 l/m 20,1 km/h (4 Bft) N-NW 335 0 min 0 W/m 14,6 C 16,2 C 20,1 km/h (4 Bft)
11.08.2009 17:56 19,9 C 72 % 1014,5 hPa 0,0 l/m 21,2 km/h (4 Bft) NW 325 0 min 0 W/m 14,7 C 15,9 C 21,2 km/h (4 Bft)
11.08.2009 18:01 19,8 C 73 % 1014,5 hPa 0,0 l/m 24,0 km/h (4 Bft) N-NW 340 0 min 0 W/m 14,8 C 15,3 C 24,0 km/h (4 Bft)
11.08.2009 18:06 19,7 C 74 % 1014,5 hPa 0,0 l/m 22,6 km/h (4 Bft) N 355 0 min 0 W/m 14,9 C 15,4 C 22,6 km/h (4 Bft)
11.08.2009 18:11 19,4 C 73 % 1014,5 hPa 0,0 l/m 25,0 km/h (4 Bft) N 355 0 min 0 W/m 14,4 C 14,6 C 25,0 km/h (4 Bft)
11.08.2009 18:16 19,2 C 73 % 1014,5 hPa 0,0 l/m 27,8 km/h (5 Bft) N-NW 330 0 min 0 W/m 14,2 C 13,9 C 27,8 km/h (5 Bft)
11.08.2009 18:21 19,2 C 73 % 1014,5 hPa 0,0 l/m 20,9 km/h (4 Bft) NW 325 0 min 0 W/m 14,2 C 15,0 C 20,9 km/h (4 Bft)
11.08.2009 18:26 19,2 C 71 % 1014,5 hPa 0,0 l/m 24,7 km/h (4 Bft) N-NW 345 0 min 0 W/m 13,8 C 14,3 C 24,7 km/h (4 Bft)
11.08.2009 18:31 19,2 C 71 % 1014,5 hPa 0,0 l/m 27,3 km/h (5 Bft) N 350 0 min 0 W/m 13,8 C 14,0 C 27,3 km/h (5 Bft)
11.08.2009 18:36 19,3 C 70 % 1014,5 hPa 0,0 l/m 20,6 km/h (4 Bft) N-NW 330 0 min 0 W/m 13,7 C 15,2 C 20,6 km/h (4 Bft)
11.08.2009 18:41 19,2 C 70 % 1014,5 hPa 0,0 l/m 20,3 km/h (4 Bft) N-NW 340 0 min 0 W/m 13,6 C 15,1 C 20,3 km/h (4 Bft)
11.08.2009 18:46 19,0 C 70 % 1014,5 hPa 0,0 l/m 22,5 km/h (4 Bft) N-NW 335 0 min 0 W/m 13,4 C 14,4 C 22,5 km/h (4 Bft)
11.08.2009 18:51 18,9 C 70 % 1014,5 hPa 0,0 l/m 22,4 km/h (4 Bft) N-NW 345 0 min 0 W/m 13,3 C 14,3 C 22,4 km/h (4 Bft)
11.08.2009 18:56 18,8 C 70 % 1014,5 hPa 0,0 l/m 24,2 km/h (4 Bft) N-NW 335 0 min 0 W/m 13,2 C 13,9 C 24,2 km/h (4 Bft)
11.08.2009 19:01 18,7 C 72 % 1014,5 hPa 0,0 l/m 18,6 km/h (3 Bft) N-NW 340 0 min 0 W/m 13,5 C 14,8 C 18,6 km/h (3 Bft)
11.08.2009 19:06 18,6 C 71 % 1014,5 hPa 0,0 l/m 26,9 km/h (4 Bft) NW 325 0 min 0 W/m 13,2 C 13,2 C 26,9 km/h (4 Bft)
11.08.2009 19:11 18,5 C 70 % 1014,5 hPa 0,0 l/m 22,5 km/h (4 Bft) N-NW 335 0 min 0 W/m 12,9 C 13,8 C 22,5 km/h (4 Bft)
11.08.2009 19:16 18,4 C 71 % 1014,5 hPa 0,0 l/m 19,5 km/h (3 Bft) NW 315 0 min 0 W/m 13,0 C 14,2 C 19,5 km/h (3 Bft)
11.08.2009 19:21 18,4 C 71 % 1014,5 hPa 0,0 l/m 21,8 km/h (4 Bft) NW 315 0 min 0 W/m 13,0 C 13,8 C 21,8 km/h (4 Bft)
11.08.2009 19:26 18,4 C 71 % 1014,5 hPa 0,0 l/m 21,5 km/h (4 Bft) NW 315 0 min 0 W/m 13,0 C 13,8 C 21,5 km/h (4 Bft)
11.08.2009 19:31 18,3 C 71 % 1014,5 hPa 0,0 l/m 23,0 km/h (4 Bft) NW 325 0 min 0 W/m 12,9 C 13,4 C 23,0 km/h (4 Bft)
11.08.2009 19:36 18,3 C 71 % 1014,5 hPa 0,0 l/m 29,5 km/h (5 Bft) N-NW 340 0 min 0 W/m 12,9 C 12,4 C 29,5 km/h (5 Bft)
11.08.2009 19:41 18,4 C 71 % 1014,5 hPa 0,0 l/m 19,2 km/h (3 Bft) N-NW 340 0 min 0 W/m 13,0 C 14,3 C 19,2 km/h (3 Bft)
11.08.2009 19:46 18,4 C 70 % 1014,5 hPa 0,0 l/m 21,0 km/h (4 Bft) N-NW 335 0 min 0 W/m 12,8 C 13,9 C 21,0 km/h (4 Bft)
11.08.2009 19:51 18,4 C 70 % 1014,5 hPa 0,0 l/m 20,8 km/h (4 Bft) N-NW 345 0 min 0 W/m 12,8 C 14,0 C 20,8 km/h (4 Bft)
11.08.2009 19:56 18,4 C 70 % 1014,5 hPa 0,0 l/m 21,2 km/h (4 Bft) NW 320 0 min 0 W/m 12,8 C 13,9 C 21,2 km/h (4 Bft)
11.08.2009 20:01 18,3 C 71 % 1014,5 hPa 0,0 l/m 24,2 km/h (4 Bft) NW 320 0 min 0 W/m 12,9 C 13,2 C 24,2 km/h (4 Bft)
11.08.2009 20:06 18,2 C 71 % 1014,5 hPa 0,0 l/m 24,1 km/h (4 Bft) NW 315 0 min 0 W/m 12,9 C 13,1 C 24,1 km/h (4 Bft)
11.08.2009 20:11 18,1 C 71 % 1014,5 hPa 0,0 l/m 19,1 km/h (3 Bft) NW 325 0 min 0 W/m 12,8 C 13,9 C 19,1 km/h (3 Bft)
11.08.2009 20:16 18,1 C 71 % 1014,5 hPa 0,0 l/m 22,7 km/h (4 Bft) NW 315 0 min 0 W/m 12,8 C 13,2 C 22,7 km/h (4 Bft)
11.08.2009 20:21 18,0 C 71 % 1014,5 hPa 0,0 l/m 18,8 km/h (3 Bft) N-NW 330 0 min 0 W/m 12,7 C 13,9 C 18,8 km/h (3 Bft)
11.08.2009 20:26 18,0 C 72 % 1014,5 hPa 0,0 l/m 20,1 km/h (4 Bft) NW 325 0 min 0 W/m 12,9 C 13,6 C 20,1 km/h (4 Bft)
11.08.2009 20:31 17,9 C 72 % 1014,5 hPa 0,0 l/m 16,8 km/h (3 Bft) NW 325 0 min 0 W/m 12,8 C 14,2 C 16,8 km/h (3 Bft)
11.08.2009 20:36 17,9 C 72 % 1014,5 hPa 0,0 l/m 19,7 km/h (3 Bft) NW 325 0 min 0 W/m 12,8 C 13,6 C 19,7 km/h (3 Bft)
11.08.2009 20:41 17,8 C 72 % 1014,5 hPa 0,0 l/m 28,6 km/h (5 Bft) NW 320 0 min 0 W/m 12,7 C 11,8 C 28,6 km/h (5 Bft)
11.08.2009 20:46 17,8 C 73 % 1014,5 hPa 0,0 l/m 21,2 km/h (4 Bft) NW 315 0 min 0 W/m 12,9 C 13,1 C 21,2 km/h (4 Bft)
11.08.2009 20:51 17,7 C 73 % 1014,5 hPa 0,0 l/m 22,7 km/h (4 Bft) NW 310 0 min 0 W/m 12,8 C 12,7 C 22,7 km/h (4 Bft)
11.08.2009 20:56 17,7 C 73 % 1014,5 hPa 0,0 l/m 16,8 km/h (3 Bft) NW 315 0 min 0 W/m 12,8 C 14,0 C 16,8 km/h (3 Bft)
11.08.2009 21:01 17,7 C 73 % 1014,5 hPa 0,0 l/m 19,6 km/h (3 Bft) N-NW 330 0 min 0 W/m 12,8 C 13,3 C 19,6 km/h (3 Bft)
11.08.2009 21:06 17,6 C 73 % 1014,5 hPa 0,0 l/m 16,5 km/h (3 Bft) N-NW 330 0 min 0 W/m 12,7 C 13,9 C 16,5 km/h (3 Bft)
11.08.2009 21:11 17,4 C 73 % 1014,5 hPa 0,0 l/m 16,5 km/h (3 Bft) N-NW 330 0 min 0 W/m 12,5 C 13,7 C 16,5 km/h (3 Bft)
11.08.2009 21:16 17,4 C 74 % 1014,5 hPa 0,0 l/m 18,8 km/h (3 Bft) NW 325 0 min 0 W/m 12,7 C 13,1 C 18,8 km/h (3 Bft)
11.08.2009 21:21 17,4 C 74 % 1014,5 hPa 0,0 l/m 14,5 km/h (3 Bft) NW 325 0 min 0 W/m 12,7 C 14,2 C 14,5 km/h (3 Bft)
11.08.2009 21:26 17,3 C 73 % 1014,5 hPa 0,0 l/m 19,4 km/h (3 Bft) NW 320 0 min 0 W/m 12,4 C 12,9 C 19,4 km/h (3 Bft)
11.08.2009 21:31 17,4 C 73 % 1014,5 hPa 0,0 l/m 16,4 km/h (3 Bft) NW 320 0 min 0 W/m 12,5 C 13,7 C 16,4 km/h (3 Bft)
11.08.2009 21:36 17,3 C 74 % 1014,5 hPa 0,0 l/m 16,1 km/h (3 Bft) NW 315 0 min 0 W/m 12,6 C 13,7 C 16,1 km/h (3 Bft)
11.08.2009 21:41 17,2 C 74 % 1014,5 hPa 0,0 l/m 17,6 km/h (3 Bft) N-NW 335 0 min 0 W/m 12,5 C 13,2 C 17,6 km/h (3 Bft)
11.08.2009 21:46 17,2 C 74 % 1014,5 hPa 0,0 l/m 16,5 km/h (3 Bft) NW 320 0 min 0 W/m 12,5 C 13,4 C 16,5 km/h (3 Bft)
11.08.2009 21:51 17,1 C 74 % 1014,5 hPa 0,0 l/m 13,5 km/h (3 Bft) NW 320 0 min 0 W/m 12,4 C 14,2 C 13,5 km/h (3 Bft)
11.08.2009 21:56 17,2 C 75 % 1014,5 hPa 0,0 l/m 13,0 km/h (3 Bft) NW 305 0 min 0 W/m 12,7 C 14,5 C 13,0 km/h (3 Bft)
11.08.2009 22:01 17,2 C 75 % 1014,5 hPa 0,0 l/m 16,5 km/h (3 Bft) NW 305 0 min 0 W/m 12,7 C 13,4 C 16,5 km/h (3 Bft)
11.08.2009 22:06 17,1 C 76 % 1014,5 hPa 0,0 l/m 18,1 km/h (3 Bft) NW 305 0 min 0 W/m 12,8 C 12,9 C 18,1 km/h (3 Bft)
11.08.2009 22:11 17,1 C 76 % 1014,5 hPa 0,0 l/m 13,6 km/h (3 Bft) NW 310 0 min 0 W/m 12,8 C 14,2 C 13,6 km/h (3 Bft)
11.08.2009 22:16 17,2 C 77 % 1014,5 hPa 0,0 l/m 14,9 km/h (3 Bft) NW 325 0 min 0 W/m 13,1 C 13,9 C 14,9 km/h (3 Bft)
11.08.2009 22:21 17,1 C 78 % 1014,5 hPa 0,0 l/m 15,3 km/h (3 Bft) NW 315 0 min 0 W/m 13,2 C 13,6 C 15,3 km/h (3 Bft)
11.08.2009 22:27 17,0 C 77 % 1014,5 hPa 0,0 l/m 15,6 km/h (3 Bft) NW 325 0 min 0 W/m 12,9 C 13,4 C 15,6 km/h (3 Bft)
11.08.2009 22:32 16,9 C 78 % 1014,5 hPa 0,0 l/m 15,6 km/h (3 Bft) NW 320 0 min 0 W/m 13,0 C 13,3 C 15,6 km/h (3 Bft)
11.08.2009 22:37 16,8 C 78 % 1014,5 hPa 0,0 l/m 15,9 km/h (3 Bft) NW 320 0 min 0 W/m 12,9 C 13,1 C 15,9 km/h (3 Bft)
11.08.2009 22:42 16,8 C 78 % 1014,5 hPa 0,0 l/m 13,1 km/h (3 Bft) NW 305 0 min 0 W/m 12,9 C 14,0 C 13,1 km/h (3 Bft)
11.08.2009 22:47 16,7 C 79 % 1014,5 hPa 0,0 l/m 15,1 km/h (3 Bft) NW 320 0 min 0 W/m 13,0 C 13,2 C 15,1 km/h (3 Bft)
11.08.2009 22:52 16,8 C 79 % 1014,5 hPa 0,0 l/m 9,8 km/h (2 Bft) NW 310 0 min 0 W/m 13,1 C 15,2 C 9,8 km/h (2 Bft)
11.08.2009 22:57 16,8 C 79 % 1014,5 hPa 0,0 l/m 15,1 km/h (3 Bft) NW 320 0 min 0 W/m 13,1 C 13,3 C 15,1 km/h (3 Bft)
11.08.2009 23:02 16,8 C 78 % 1014,5 hPa 0,0 l/m 15,1 km/h (3 Bft) NW 320 0 min 0 W/m 12,9 C 13,3 C 15,1 km/h (3 Bft)
11.08.2009 23:07 16,8 C 78 % 1014,5 hPa 0,0 l/m 18,0 km/h (3 Bft) NW 315 0 min 0 W/m 12,9 C 12,6 C 18,0 km/h (3 Bft)
11.08.2009 23:12 16,7 C 78 % 1014,5 hPa 0,0 l/m 15,9 km/h (3 Bft) NW 310 0 min 0 W/m 12,8 C 13,0 C 15,9 km/h (3 Bft)
11.08.2009 23:17 16,7 C 78 % 1014,5 hPa 0,0 l/m 15,8 km/h (3 Bft) W-NW 295 0 min 0 W/m 12,8 C 13,0 C 15,8 km/h (3 Bft)
11.08.2009 23:22 16,6 C 78 % 1014,5 hPa 0,0 l/m 18,4 km/h (3 Bft) NW 325 0 min 0 W/m 12,7 C 12,2 C 18,4 km/h (3 Bft)
11.08.2009 23:27 16,6 C 77 % 1014,5 hPa 0,0 l/m 14,2 km/h (3 Bft) NW 310 0 min 0 W/m 12,5 C 13,4 C 14,2 km/h (3 Bft)
11.08.2009 23:32 16,6 C 77 % 1014,5 hPa 0,0 l/m 16,2 km/h (3 Bft) NW 320 0 min 0 W/m 12,5 C 12,8 C 16,2 km/h (3 Bft)
11.08.2009 23:37 16,7 C 77 % 1014,5 hPa 0,0 l/m 23,6 km/h (4 Bft) W-NW 300 0 min 0 W/m 12,6 C 11,2 C 23,6 km/h (4 Bft)
11.08.2009 23:42 16,8 C 76 % 1014,5 hPa 0,0 l/m 17,0 km/h (3 Bft) NW 320 0 min 0 W/m 12,5 C 12,8 C 17,0 km/h (3 Bft)
11.08.2009 23:47 16,8 C 76 % 1014,5 hPa 0,0 l/m 13,7 km/h (3 Bft) NW 315 0 min 0 W/m 12,5 C 13,8 C 13,7 km/h (3 Bft)
11.08.2009 23:52 16,8 C 77 % 1014,5 hPa 0,0 l/m 17,6 km/h (3 Bft) NW 310 0 min 0 W/m 12,7 C 12,7 C 17,6 km/h (3 Bft)
11.08.2009 23:57 16,8 C 76 % 1014,5 hPa 0,0 l/m 11,8 km/h (2 Bft) NW 310 0 min 0 W/m 12,5 C 14,4 C 11,8 km/h (2 Bft)
_ Min-Zeit 06:21 16:51 03:41 - 00:01 - - - - 21:26 08:16 00:01
Minimum _ 16,2 C 69 % 1011,5 hPa - 0,0 km/h (0 Bft) - - - - 12,4 C 10,8 C 0,0 km/h (0 Bft)
_ Max-Zeit 12:56 08:11 16:21 02:46 19:36 - - 00:01 00:01 10:56 12:51 19:36
Maximum _ 21,8 C 92 % 1014,5 hPa 0,3 l/m 29,5 km/h
N-NW (5 Bft)
- - 0 min 0 W/m 17,4 C 19,7 C 29,5 km/h
N-NW (5 Bft)
Durchschnitt _ 18,4 C 79 % 1013,0 hPa #3,6 l/m 14,8 km/h (3 Bft) NW - #0 min. 0 W/m 14,7 C 15,6 C 14,8 km/h (3 Bft)
copyright by Holger Just